TimeEDT,TemperatureF,Dew PointF,Humidity,Sea Level PressureIn,VisibilityMPH,Wind Direction,Wind SpeedMPH,Gust SpeedMPH,PrecipitationIn,Events,Conditions,WindDirDegrees,DateUTC
12:15 AM,66.4,65.8,98,30.10,4.0,Calm,Calm,-,N/A,,Clear,0,2013-08-04 04:15:00
12:35 AM,66.2,65.7,98,30.11,5.0,Calm,Calm,-,N/A,,Clear,0,2013-08-04 04:35:00
12:55 AM,66.2,65.8,99,30.10,4.0,Calm,Calm,-,N/A,,Clear,0,2013-08-04 04:55:00
1:15 AM,65.7,65.3,99,30.10,4.0,Calm,Calm,-,N/A,,Clear,0,2013-08-04 05:15:00
1:35 AM,65.7,65.5,99,30.10,4.0,Calm,Calm,-,N/A,,Clear,0,2013-08-04 05:35:00
1:55 AM,64.8,64.4,99,30.10,5.0,Calm,Calm,-,N/A,,Clear,0,2013-08-04 05:55:00
2:15 AM,64.4,64.4,100,30.10,4.0,Calm,Calm,-,N/A,,Mostly Cloudy,0,2013-08-04 06:15:00
2:35 AM,64.4,64.2,99,30.09,4.0,Calm,Calm,-,N/A,,Mostly Cloudy,0,2013-08-04 06:35:00
2:55 AM,64.4,63.9,98,30.09,3.0,Calm,Calm,-,N/A,,Scattered Clouds,0,2013-08-04 06:55:00
3:15 AM,64.0,63.7,99,30.08,4.0,Calm,Calm,-,N/A,,Scattered Clouds,0,2013-08-04 07:15:00
3:35 AM,64.4,64.4,100,30.08,4.0,Calm,Calm,-,N/A,,Mostly Cloudy,0,2013-08-04 07:35:00
3:55 AM,63.7,63.5,99,30.08,4.0,Calm,Calm,-,N/A,,Mostly Cloudy,0,2013-08-04 07:55:00
4:15 AM,63.7,63.5,99,30.08,3.0,Calm,Calm,-,N/A,,Mostly Cloudy,0,2013-08-04 08:15:00
4:35 AM,64.0,63.7,99,30.08,4.0,Calm,Calm,-,N/A,,Mostly Cloudy,0,2013-08-04 08:35:00
4:55 AM,64.4,64.0,99,30.09,4.0,Calm,Calm,-,N/A,,Overcast,0,2013-08-04 08:55:00
5:15 AM,64.2,63.9,99,30.09,4.0,Calm,Calm,-,N/A,,Mostly Cloudy,0,2013-08-04 09:15:00
5:35 AM,63.5,63.3,99,30.08,3.0,Calm,Calm,-,N/A,,Scattered Clouds,0,2013-08-04 09:35:00
5:55 AM,63.3,63.0,99,30.09,5.0,Calm,Calm,-,N/A,,Mostly Cloudy,0,2013-08-04 09:55:00
6:15 AM,62.6,62.2,99,30.09,3.0,Calm,Calm,-,N/A,,Scattered Clouds,0,2013-08-04 10:15:00
6:35 AM,62.4,62.2,99,30.09,4.0,Calm,Calm,-,N/A,,Mostly Cloudy,0,2013-08-04 10:35:00
6:55 AM,63.0,62.8,99,30.09,1.8,Calm,Calm,-,N/A,,Overcast,0,2013-08-04 10:55:00
7:15 AM,63.7,63.7,100,30.09,0.2,Calm,Calm,-,N/A,Fog,Fog,0,2013-08-04 11:15:00
7:35 AM,63.9,63.9,100,30.10,0.2,Calm,Calm,-,N/A,Fog,Fog,0,2013-08-04 11:35:00
7:55 AM,63.9,63.9,100,30.10,0.2,Calm,Calm,-,N/A,Fog,Fog,0,2013-08-04 11:55:00
8:15 AM,64.4,64.4,100,30.11,0.5,Calm,Calm,-,N/A,Fog,Fog,0,2013-08-04 12:15:00
8:35 AM,64.8,64.8,100,30.11,0.2,Calm,Calm,-,N/A,Fog,Fog,0,2013-08-04 12:35:00
8:55 AM,65.8,65.7,99,30.11,1.2,Calm,Calm,-,N/A,,Overcast,0,2013-08-04 12:55:00
9:15 AM,67.1,66.2,97,30.11,5.0,Calm,Calm,-,N/A,,Mostly Cloudy,0,2013-08-04 13:15:00
9:35 AM,68.9,67.1,94,30.10,7.0,Calm,Calm,-,N/A,,Scattered Clouds,0,2013-08-04 13:35:00
9:55 AM,71.4,68.0,89,30.10,10.0,Calm,Calm,-,N/A,,Clear,0,2013-08-04 13:55:00
10:15 AM,75.9,68.7,78,30.10,10.0,Calm,Calm,-,N/A,,Scattered Clouds,0,2013-08-04 14:15:00
10:35 AM,77.4,66.7,70,30.09,10.0,Calm,Calm,-,N/A,,Scattered Clouds,0,2013-08-04 14:35:00
10:55 AM,78.1,67.3,69,30.09,10.0,East,4.6,-,N/A,,Scattered Clouds,100,2013-08-04 14:55:00
11:15 AM,78.8,66.2,65,30.10,10.0,North,8.1,-,N/A,,Scattered Clouds,350,2013-08-04 15:15:00
11:35 AM,79.9,66.6,64,30.10,10.0,North,9.2,-,N/A,,Clear,360,2013-08-04 15:35:00
11:55 AM,80.1,65.5,61,30.10,10.0,NNE,11.5,-,N/A,,Scattered Clouds,30,2013-08-04 15:55:00
12:15 PM,80.8,66.0,61,30.09,10.0,NNE,12.7,17.3,N/A,,Scattered Clouds,30,2013-08-04 16:15:00
12:35 PM,81.3,66.0,60,30.09,10.0,North,10.4,-,N/A,,Scattered Clouds,360,2013-08-04 16:35:00
12:55 PM,81.5,66.0,59,30.08,10.0,NNE,9.2,17.3,N/A,,Scattered Clouds,30,2013-08-04 16:55:00
1:15 PM,81.9,66.2,59,30.08,10.0,NNE,8.1,-,N/A,,Scattered Clouds,20,2013-08-04 17:15:00
1:35 PM,81.9,66.0,59,30.08,10.0,NNE,12.7,17.3,N/A,,Clear,20,2013-08-04 17:35:00
1:55 PM,82.4,65.1,56,30.08,10.0,NE,10.4,19.6,N/A,,Clear,40,2013-08-04 17:55:00
2:15 PM,82.4,65.3,56,30.07,10.0,NE,11.5,18.4,N/A,,Clear,40,2013-08-04 18:15:00
2:35 PM,83.5,66.2,56,30.07,10.0,North,9.2,19.6,N/A,,Clear,10,2013-08-04 18:35:00
2:55 PM,82.4,65.3,56,30.07,10.0,North,8.1,16.1,N/A,,Clear,10,2013-08-04 18:55:00
3:15 PM,82.4,64.9,55,30.07,10.0,North,9.2,16.1,N/A,,Clear,10,2013-08-04 19:15:00
3:35 PM,80.6,64.6,58,30.06,10.0,NNE,15.0,21.9,N/A,,Mostly Cloudy,30,2013-08-04 19:35:00
3:55 PM,81.7,64.8,56,30.06,10.0,North,11.5,19.6,N/A,,Mostly Cloudy,360,2013-08-04 19:55:00
4:15 PM,81.0,64.2,57,30.06,10.0,North,11.5,18.4,N/A,,Scattered Clouds,10,2013-08-04 20:15:00
4:35 PM,81.7,65.3,57,30.06,10.0,North,15.0,18.4,N/A,,Clear,360,2013-08-04 20:35:00
4:55 PM,82.0,64.2,55,30.07,10.0,North,6.9,-,N/A,,Scattered Clouds,350,2013-08-04 20:55:00
5:15 PM,81.3,62.6,53,30.06,10.0,North,4.6,-,N/A,,Scattered Clouds,360,2013-08-04 21:15:00
5:35 PM,81.7,63.3,54,30.06,10.0,North,6.9,-,N/A,,Scattered Clouds,10,2013-08-04 21:35:00
5:55 PM,80.8,61.7,52,30.06,10.0,North,6.9,-,N/A,,Scattered Clouds,360,2013-08-04 21:55:00
6:15 PM,80.2,63.1,56,30.06,10.0,NNE,3.5,-,N/A,,Clear,30,2013-08-04 22:15:00
6:35 PM,79.9,61.7,54,30.05,10.0,North,5.8,-,N/A,,Clear,350,2013-08-04 22:35:00
6:55 PM,79.7,60.1,51,30.06,10.0,NNE,5.8,-,N/A,,Clear,20,2013-08-04 22:55:00
7:15 PM,79.0,59.0,50,30.06,10.0,North,3.5,-,N/A,,Clear,360,2013-08-04 23:15:00
7:35 PM,76.8,59.7,55,30.07,10.0,Calm,Calm,-,N/A,,Clear,0,2013-08-04 23:35:00
7:55 PM,73.8,62.8,68,30.07,10.0,NE,3.5,-,N/A,,Clear,40,2013-08-04 23:55:00
8:15 PM,70.5,63.1,77,30.07,10.0,NNW,3.5,-,N/A,,Clear,340,2013-08-05 00:15:00
8:35 PM,69.4,63.3,81,30.08,10.0,NNW,3.5,-,N/A,,Clear,330,2013-08-05 00:35:00
8:55 PM,68.5,62.2,80,30.08,10.0,WNW,3.5,-,N/A,,Clear,290,2013-08-05 00:55:00
9:15 PM,67.5,62.8,85,30.08,10.0,Calm,Calm,-,N/A,,Clear,0,2013-08-05 01:15:00
9:35 PM,65.8,62.6,89,30.09,10.0,Calm,Calm,-,N/A,,Clear,0,2013-08-05 01:35:00
9:55 PM,65.1,62.4,91,30.10,10.0,Calm,Calm,-,N/A,,Clear,0,2013-08-05 01:55:00
10:15 PM,64.9,62.4,92,30.10,10.0,Calm,Calm,-,N/A,,Clear,0,2013-08-05 02:15:00
10:35 PM,64.6,62.6,93,30.11,10.0,Calm,Calm,-,N/A,,Clear,0,2013-08-05 02:35:00
10:55 PM,63.1,62.1,96,30.11,10.0,Calm,Calm,-,N/A,,Clear,0,2013-08-05 02:55:00
11:15 PM,63.0,62.1,97,30.11,7.0,Calm,Calm,-,N/A,,Clear,0,2013-08-05 03:15:00
11:35 PM,62.4,61.0,95,30.11,10.0,Calm,Calm,-,N/A,,Clear,0,2013-08-05 03:35:00
11:55 PM,62.4,61.2,96,30.12,7.0,Calm,Calm,-,N/A,,Clear,0,2013-08-05 03:55:00